Location: Nirvana
(45.0297°N, 77.2628°W)
Time: 14:09:12
(UTC-05:00)

ISS - Visible Passes

Search period start: 20 February 2019 00:00
Search period end: 02 March 2019 00:00
Orbit: 403 x 411 km, 51.6° (Epoch: 21 February)

Date Brightness Start Highest point End Pass type
(mag) Time Alt. Az. Time Alt. Az. Time Alt. Az.
22 Feb -0.9 06:00:40 10° S 06:02:36 15° SE 06:04:32 10° E visible
24 Feb -2.2 05:52:53 10° SSW 05:55:51 32° SE 05:58:49 10° ENE visible
25 Feb -1.4 05:02:58 14° S 05:04:30 19° SE 05:06:53 10° E visible
26 Feb -0.5 04:13:57 10° ESE 04:13:57 10° ESE 04:14:01 10° ESE visible
26 Feb -3.7 05:46:40 16° SW 05:49:12 74° SSE 05:52:28 10° ENE visible
27 Feb -2.9 04:57:29 41° SSE 04:57:44 42° SE 05:00:50 10° ENE visible
28 Feb -0.7 04:08:11 15° E 04:08:11 15° E 04:09:00 10° E visible
28 Feb -3.6 05:40:53 24° W 05:42:38 55° NNW 05:45:52 10° NE visible
01 Mar -3.5 04:51:28 64° NE 04:51:28 64° NE 04:54:18 10° ENE visible
